Eastsound, WA
on Sunday, December 2, 2012

Sunday
Previous Day Next Day
Daily Summary
 ActualAverage (KBLI)Record (KBLI)
Temperature
Mean Temperature °F 40°F  
Max Temperature 51°F 46°F 58°F (1958)
Min Temperature 42°F 33°F 21°F (1954)
Degree Days
Heating Degree Days 18 25  
Month to date heating degree days 50  
Cooling Degree Days 0 0  
Month to date cooling degree days 0  
Year to date cooling degree days 42  
Moisture
Dew Point 43°F   
Average Humidity 87    
Maximum Humidity 100    
Minimum Humidity 62    
Precipitation
Precipitation 0.13 in 0.17 in 1.80 in (1975)
Month to date precipitation 0.34  
Year to date precipitation 31.95  
Wind
Wind Speed 8 mph   
Max Wind Speed 13 mph   
Max Gust Speed 21 mph   
Visibility 9 miles   
Events Rain   

Key: T is trace of precipitation, MM is missing value
Source: NWS Daily Summary
Time(PST)TemperatureDew PointHumidity Pressure Visibility Wind DirectionWind SpeedGust SpeedPrecipitationEvents Conditions
12:15 AM 48.2°F 41.0°F 76% 29.23 in 10.0 miles SSE 10.4 mph 19.6 mph N/A Rain Light Rain
12:35 AM 48.2°F 39.2°F 71% 29.21 in 10.0 miles SSE 10.4 mph 18.4 mph N/A Rain Light Rain
1:15 AM 50.0°F 39.2°F 66% 29.16 in 10.0 miles SSE 5.8 mph 18.4 mph N/A   Clear
1:35 AM 51.8°F 39.2°F 62% 29.15 in 10.0 miles SSE 8.1 mph 20.7 mph N/A   Clear
1:55 AM 50.0°F 39.2°F 66% 29.15 in 10.0 miles SSE 9.2 mph 19.6 mph N/A Rain Light Rain
2:15 AM 50.0°F 41.0°F 71% 29.15 in 9.0 miles SSE 8.1 mph - N/A Rain Light Rain
2:35 AM 48.2°F 41.0°F 76% 29.16 in 9.0 miles South 8.1 mph - N/A Rain Light Rain
3:15 AM 46.4°F 42.8°F 87% 29.16 in 7.0 miles South 8.1 mph 16.1 mph N/A Rain Light Rain
3:35 AM 46.4°F 44.6°F 93% 29.15 in 5.0 miles SSE 8.1 mph - N/A Rain Rain
4:15 AM 46.4°F 42.8°F 87% 29.13 in 10.0 miles South 8.1 mph - N/A   Overcast
4:35 AM 46.4°F 42.8°F 87% 29.12 in 10.0 miles South 9.2 mph 16.1 mph N/A   Overcast
4:55 AM 48.2°F 41.0°F 76% 29.13 in 10.0 miles South 11.5 mph 19.6 mph N/A   Overcast
5:15 AM 48.2°F 42.8°F 82% 29.15 in 10.0 miles South 10.4 mph 17.3 mph N/A Rain Light Rain
5:35 AM 46.4°F 44.6°F 93% 29.16 in 4.0 miles SW 11.5 mph 16.1 mph N/A Rain Rain
5:55 AM 46.4°F 44.6°F 93% 29.18 in 3.0 miles SSW 9.2 mph 18.4 mph 0.08 in Rain Rain
6:15 AM 44.6°F 44.6°F 100% 29.19 in 4.0 miles SSW 8.1 mph - 0.05 in Rain Rain
6:35 AM 44.6°F 44.6°F 100% 29.18 in 9.0 miles South 6.9 mph - 0.05 in Rain Light Rain
6:55 AM 44.6°F 42.8°F 93% 29.19 in 10.0 miles South 10.4 mph - 0.05 in   Clear
7:15 AM 44.6°F 41.0°F 87% 29.21 in 10.0 miles SSW 9.2 mph - N/A   Clear
7:35 AM 44.6°F 41.0°F 87% 29.23 in 10.0 miles WSW 3.5 mph - N/A   Clear
7:55 AM 42.8°F 41.0°F 93% 29.24 in 10.0 miles Calm Calm - N/A   Clear
8:15 AM 42.8°F 41.0°F 93% 29.25 in 10.0 miles South 3.5 mph - N/A   Clear
8:35 AM 44.6°F 41.0°F 87% 29.26 in 10.0 miles SSE 3.5 mph - N/A   Clear
8:55 AM 44.6°F 41.0°F 87% 29.28 in 10.0 miles SSE 3.5 mph - N/A   Clear
9:15 AM 44.6°F 41.0°F 87% 29.29 in 10.0 miles South 3.5 mph - N/A   Clear
9:35 AM 46.4°F 41.0°F 81% 29.31 in 10.0 miles South 8.1 mph - N/A   Clear
9:55 AM 46.4°F 41.0°F 81% 29.33 in 10.0 miles South 9.2 mph - N/A   Partly Cloudy
10:15 AM 46.4°F 41.0°F 81% 29.34 in 7.0 miles SW 6.9 mph - N/A Rain Light Rain
10:35 AM 46.4°F 41.0°F 81% 29.35 in 8.0 miles SSW 8.1 mph - N/A Rain Light Rain
10:55 AM 46.4°F 41.0°F 81% 29.37 in 10.0 miles SSW 9.2 mph - N/A Rain Light Rain
11:15 AM 46.4°F 42.8°F 87% 29.38 in 5.0 miles South 6.9 mph - N/A Rain Light Rain
11:35 AM 46.4°F 44.6°F 93% 29.38 in 10.0 miles South 8.1 mph - N/A   Mostly Cloudy
11:55 AM 46.4°F 42.8°F 87% 29.38 in 10.0 miles South 4.6 mph - N/A   Mostly Cloudy
12:15 PM 48.2°F 41.0°F 76% 29.39 in 10.0 miles South 4.6 mph - N/A   Mostly Cloudy
12:35 PM 46.4°F 44.6°F 93% 29.41 in 9.0 miles SSW 11.5 mph - N/A Rain Light Rain
12:55 PM 46.4°F 44.6°F 93% 29.42 in 5.0 miles South 6.9 mph - N/A Rain Light Rain
1:15 PM 46.4°F 44.6°F 93% 29.42 in 10.0 miles SSW 12.7 mph 17.3 mph N/A   Mostly Cloudy
1:35 PM 48.2°F 44.6°F 87% 29.43 in 10.0 miles SSW 9.2 mph - N/A   Mostly Cloudy
1:55 PM 48.2°F 42.8°F 82% 29.44 in 10.0 miles South 9.2 mph 16.1 mph N/A   Partly Cloudy
2:15 PM 46.4°F 42.8°F 87% 29.46 in 10.0 miles SSW 9.2 mph - N/A   Clear
2:35 PM 46.4°F 42.8°F 87% 29.47 in 10.0 miles South 8.1 mph - N/A   Scattered Clouds
2:55 PM 48.2°F 41.0°F 76% 29.48 in 10.0 miles South 10.4 mph - N/A   Mostly Cloudy
3:15 PM 48.2°F 44.6°F 87% 29.49 in 10.0 miles South 6.9 mph - N/A   Mostly Cloudy
3:35 PM 48.2°F 44.6°F 87% 29.51 in 10.0 miles SSW 10.4 mph - N/A   Overcast
3:55 PM 48.2°F 44.6°F 87% 29.52 in 10.0 miles South 9.2 mph - N/A   Mostly Cloudy
4:15 PM 48.2°F 44.6°F 87% 29.52 in 10.0 miles South 6.9 mph - N/A   Mostly Cloudy
4:35 PM 46.4°F 44.6°F 93% 29.53 in 10.0 miles South 6.9 mph - N/A   Mostly Cloudy
4:55 PM 46.4°F 44.6°F 93% 29.53 in 9.0 miles South 8.1 mph - N/A Rain Light Rain
5:15 PM 46.4°F 44.6°F 93% 29.55 in 6.0 miles South 9.2 mph - N/A Rain Light Rain
5:35 PM 46.4°F 44.6°F 93% 29.56 in 7.0 miles South 8.1 mph - N/A Rain Light Rain
5:55 PM 46.4°F 44.6°F 93% 29.57 in 7.0 miles South 6.9 mph - N/A Rain Light Rain
6:15 PM 46.4°F 44.6°F 93% 29.57 in 10.0 miles South 6.9 mph - N/A   Overcast
6:35 PM 46.4°F 44.6°F 93% 29.57 in 10.0 miles South 9.2 mph - N/A   Mostly Cloudy
6:55 PM 46.4°F 44.6°F 93% 29.58 in 10.0 miles South 6.9 mph - N/A   Overcast
7:35 PM 46.4°F 44.6°F 93% 29.60 in 5.0 miles South 5.8 mph - N/A Rain Light Rain
7:55 PM 46.4°F 44.6°F 93% 29.60 in 10.0 miles South 5.8 mph - N/A Rain Light Rain
8:15 PM 46.4°F 44.6°F 93% 29.61 in 9.0 miles South 6.9 mph - N/A Rain Light Rain
8:35 PM 46.4°F 44.6°F 93% 29.61 in 10.0 miles South 6.9 mph - N/A   Mostly Cloudy
8:55 PM 46.4°F 44.6°F 93% 29.62 in 10.0 miles SSW 8.1 mph - N/A   Mostly Cloudy
9:15 PM 46.4°F 44.6°F 93% 29.63 in 7.0 miles South 11.5 mph - N/A Rain Light Rain
9:35 PM 46.4°F 44.6°F 93% 29.64 in 3.0 miles SW 10.4 mph - N/A Rain Light Rain
9:55 PM 46.4°F 44.6°F 93% 29.65 in 6.0 miles SW 6.9 mph - N/A Rain Light Rain
10:15 PM 46.4°F 44.6°F 93% 29.66 in 5.0 miles SSW 8.1 mph - N/A Rain Light Rain
10:35 PM 46.4°F 44.6°F 93% 29.67 in 7.0 miles South 6.9 mph - N/A Rain Light Rain
10:55 PM 46.4°F 44.6°F 93% 29.67 in 10.0 miles South 6.9 mph - N/A   Mostly Cloudy
11:15 PM 46.4°F 44.6°F 93% 29.67 in 10.0 miles SSW 9.2 mph - N/A   Partly Cloudy
11:35 PM 44.6°F 44.6°F 100% 29.68 in 10.0 miles South 8.1 mph - N/A   Clear
11:55 PM 44.6°F 42.8°F 93% 29.69 in 10.0 miles South 10.4 mph 16.1 mph N/A   Clear
Moon Phase
Dec. 02 Dec. 06 Dec. 13 Dec. 20 Dec. 28
Sunrise:07:45 AM (PST) Moon Rise:08:19 PM (PST)12/2
Sunset:04:17 PM (PST) Moon Set:10:30 AM (PST)12/2

Copyright © 2014 The Weather Underground, Inc.